Regional Weather Roundup
Issued by NWS

Home | Current Version | Previous Version | Text Only | Print | Product List | Glossary On
Versions: 1 2 3 4 5 6 7 8 9 10 11 12 13 14 15 16 17 18 19 20 21 22 23 24 25 26 27 28 29 30 31 32 33 34 35 36 37 38 39 40 41 42 43 44 45 46 47 48 49 50
000
ASCA44 KEWX 041020
RWRMX

LATIN AMERICA AND CARIBBEAN REGIONAL WEATHER ROUNDUP
NATIONAL WEATHER SERVICE AUSTIN/SAN ANTONIO TX
500 AM CDT MON MAY 04 2015

NOTE: "FAIR" INDICATED FEW OR NO CLOUDS BELOW 12,000 FEET WITH NO
SIGNIFICANT WEATHER AND/OR OBSTRUCTIONS TO VISIBILITY.

BAJA CALIFORNIA

CITY           SKY/WX    TMP DP  RH WIND       PRES   REMARKS
TIJUANA        CLOUDY    59  50  72 NW9       29.94F

NORTHWESTERN MEXICO

CITY           SKY/WX    TMP DP  RH WIND       PRES   REMARKS

NORTHEASTERN MEXICO

CITY           SKY/WX    TMP DP  RH WIND       PRES   REMARKS
MONTERREY      CLOUDY    68  61  77 NE7       29.87F
NUEVO LAREDO   CLOUDY    73  68  83 SE9       29.90
REYNOSA        CLOUDY    72  68  88 E7        29.91F
TORREON        PTCLDY    72  50  46 CALM      29.92
CD. VICTORIA   MOCLDY    73  66  78 SE9       29.92F

WESTERN MEXICO

CITY           SKY/WX    TMP DP  RH WIND       PRES   REMARKS
AGUASCALIENTES CLEAR     54  32  43 SE6       30.16
COLIMA         CLEAR     70  55  60 CALM      29.93
DEL BAJIO      CLEAR     54  36  50 N3        30.21F
GUADALAJARA    CLEAR     54  41  62 CALM      30.11F
MAZATLAN       PTCLDY    63  57  82 N8        29.86F
P. VALLARTA    PTCLDY    72  68  88 CALM      29.84F
ZACATECAS      CLEAR     66  46  48 S9        30.17F

CENTRAL MEXICO

CITY           SKY/WX    TMP DP  RH WIND       PRES   REMARKS
MEXICO CITY    PTCLDY    61  54  77 CALM      30.23F
MORELIA        CLEAR     54  48  82 CALM      30.14F
PUEBLA         PTCLDY    52  48  87 CALM      30.24F
QUERETARO      CLEAR     54  52  94 CALM      30.21F
S. LUIS POTOSI PTCLDY    55  52  88 SE5       30.15
TOLUCA         PTCLDY    45  41  87 SE2       30.31F

SOUTHERN MEXICO

CITY           SKY/WX    TMP DP  RH WIND       PRES   REMARKS
ACAPULCO       CLEAR     79  75  89 NW2       29.81F

YUCATAN PENINSULA

CITY           SKY/WX    TMP DP  RH WIND       PRES   REMARKS
CANCUN         PTCLDY    75  68  78 NE6       29.94S
CD. DEL CARMEN CLEAR     79  70  73 SE6       29.87S
COZUMEL        CLEAR     68  68 100 CALM      29.93F
MERIDA         PTCLDY    73  68  83 E6        29.95S
MINATITLAN     PTCLDY    79  68  69 CALM      29.85
TAPACHULA      MOCLDY    77  73  88 CALM      29.86S
VILLAHERMOSA   CLEAR     73  73 100 CALM      29.90

CENTRAL AMERICA

CITY           SKY/WX    TMP DP  RH WIND       PRES   REMARKS

CARIBBEAN

CITY           SKY/WX    TMP DP  RH WIND       PRES   REMARKS
ARUBA          PTCLDY    81  75  83 E23       29.86S
CURACAO        MOCLDY    81  73  78 SE14      29.92R
KINGSTON       PTCLDY    81  72  74 SE13      29.92R
NASSAU         MOCLDY    73  61  64 NE6       30.09S
SAN JUAN       PTCLDY    79  73  83 E3        30.04R
SANTO DOMINGO  PTCLDY    73  70  88 NE5       29.97S
ST. CROIX      PTCLDY    81  72  74 E12       30.06
ST. KITTS      PTCLDY    79  72  78 E12       30.06
ST. MAARTEN    PTCLDY    81  72  74 E9        30.06R
ST. THOMAS     PTCLDY    81  73  78 E16       30.04R

$$



USA.gov is the U.S. government's official web portal to all federal, state and local government web resources and services.